Location: Six Mile Lake
(44.9000°N, 79.7170°W)
Time: 02:47:32
(UTC-04:00)

UKube-1 - Pass Details

Date: 07 July 2022
Orbit: 608 x 615 km, 98.4° (Epoch: 17 August)

Event Time Altitude Azimuth Distance (km) Brightness Sun altitude
Rises 22:52:17 0° 20° (NNE) 2,891 ? -14.3°
Reaches altitude 10° 22:54:36 10° 29° (NNE) 1,980 ? -14.5°
Maximum altitude 22:58:38 39° 99° (E) 917 ? -14.9°
Enters shadow 23:00:26 26° 148° (SSE) 1,201 ? -15.1°
